Wind_Speed
22 22 22 21 21 21 22 21 20 20 20 19 19 19 19 18 18 18 18 18 18 18 18 18 18 18 18 18 18 19 19 19 19 18 18 19 19 18 18 18 18 18 18
23 23 23 22 23 23 23 22 22 21 21 20 20 20 20 20 20 20 19 19 19 19 19 20 20 19 19 19 19 20 20 20 20 19 19 19 19 19 19 19 19 19 18
24 25 24 24 25 24 24 24 24 23 23 22 21 21 21 21 21 21 20 20 20 20 21 21 21 20 21 21 21 21 21 21 21 20 20 20 20 19 20 19 19 19 19
26 26 26 26 26 25 25 25 25 25 24 24 23 22 22 23 23 22 21 21 21 21 22 22 22 22 22 22 22 22 22 22 22 22 22 22 21 21 21 21 20 20 20
27 27 27 26 26 26 26 26 26 26 25 25 25 25 24 24 23 23 23 23 23 23 23 23 23 23 23 23 23 23 23 24 23 23 23 23 22 22 22 22 22 22 22
27 27 27 27 27 27 27 27 27 27 27 26 26 26 26 25 25 25 25 25 25 25 24 24 24 24 24 25 24 24 24 24 24 24 24 24 23 23 23 24 23 23 23
28 28 29 29 28 28 28 29 29 29 29 28 28 27 27 27 27 27 28 27 27 26 26 26 26 26 26 26 26 26 26 26 26 25 24 24 24 24 25 25 25 25 24
29 29 30 30 29 29 31 31 31 31 31 31 30 29 29 29 30 29 30 29 28 28 27 27 27 27 27 27 27 27 27 27 26 25 25 25 25 25 25 25 24 24 25
30 31 32 32 31 31 32 31 32 32 32 32 32 31 31 31 31 31 31 31 30 29 29 28 28 28 28 28 29 29 29 27 26 26 26 27 27 26 26 26 25 25 25
32 32 33 33 33 33 33 33 34 33 33 33 32 32 32 31 32 32 32 31 30 30 30 30 30 29 29 29 29 29 29 28 28 27 27 28 28 27 27 27 27 26 26
33 33 34 35 34 33 34 34 35 35 35 34 34 33 33 33 33 33 33 32 31 31 30 30 30 31 30 30 30 30 30 30 30 30 30 30 29 28 28 28 28 29 28
35 35 35 35 35 35 35 34 35 35 36 35 34 34 35 35 34 34 34 34 34 33 32 32 32 31 31 32 31 31 31 30 30 30 30 30 30 30 30 30 29 29 29
36 36 36 36 35 35 35 35 35 35 35 35 35 35 34 35 35 35 35 34 35 35 34 33 33 33 32 33 32 31 31 30 30 29 30 30 30 31 31 31 31 31 30
37 36 37 37 36 36 36 36 35 35 35 35 35 35 35 35 34 35 35 35 35 35 35 34 34 34 34 33 33 33 32 31 31 30 30 30 30 30 30 30 30 30 30
37 37 38 37 36 36 35 35 35 35 35 34 35 35 35 35 35 35 35 35 35 34 34 34 34 33 33 33 33 32 32 31 31 31 30 30 30 30 30 30 30 30 30
37 37 37 37 36 36 35 35 34 34 34 34 34 35 36 36 36 36 36 35 35 35 35 33 33 33 32 32 32 32 32 31 31 31 31 31 30 30 30 30 30 30 30
36 36 36 36 35 35 35 35 34 34 34 34 35 35 35 35 36 36 37 36 35 35 35 34 33 32 32 32 32 32 32 31 31 32 31 31 30 30 30 30 30 30 30
36 36 36 36 35 35 34 34 34 35 35 35 35 34 34 35 36 36 37 37 37 36 35 35 34 33 32 32 32 32 32 32 32 32 32 31 31 31 31 30 31 30 30
35 35 35 35 35 35 35 35 34 34 35 35 35 35 36 36 36 37 37 37 37 36 36 35 35 34 33 33 33 32 32 32 32 32 32 32 32 32 32 31 31 31 31
34 35 35 34 34 34 34 34 35 35 35 35 35 35 36 37 37 37 37 36 36 35 35 35 35 34 34 34 34 33 33 33 33 33 33 33 33 33 33 32 32 32 32
32 33 33 34 33 34 34 34 35 35 35 35 35 35 36 36 36 36 36 36 36 35 35 35 35 34 34 34 34 34 33 33 33 33 34 34 34 34 34 34 34 33 33
32 33 33 33 33 34 34 35 35 35 35 35 35 34 35 35 36 36 36 35 35 35 34 34 34 33 33 32 33 34 33 33 33 33 33 34 35 35 35 35 34 34 34
32 32 32 33 33 34 34 34 34 34 34 34 34 33 34 34 34 34 34 34 34 33 33 33 33 33 32 32 33 33 33 33 33 33 34 34 35 35 34 34 34 34 33
31 32 33 33 33 33 33 33 33 33 33 33 33 33 34 33 33 33 33 33 33 33 33 33 33 33 33 33 33 33 33 34 33 34 34 34 35 35 34 34 33 33 32
30 31 32 32 33 32 32 32 32 32 32 32 32 32 33 33 32 32 33 33 33 33 33 33 33 33 34 33 33 33 33 33 33 33 34 33 33 34 34 33 33 33 33
28 28 29 30 31 31 31 31 30 30 30 30 31 31 31 31 32 32 32 32 32 32 32 32 33 33 34 33 33 33 32 33 33 34 33 33 32 32 32 33 33 32 32
Wind_Direction
255 256 259 260 263 267 270 271 272 275 279 280 281 283 284 285 286 288 287 291 292 291 291 292 293 293 294 296 297 297 298 297 297 297 297 299 299 297 293 292 293 293 291
255 256 258 260 264 266 270 270 272 274 278 280 280 281 282 283 284 286 286 288 291 290 290 290 292 293 293 296 297 297 297 297 296 297 296 297 298 296 294 293 294 294 293
255 256 256 260 264 265 267 270 272 274 276 280 280 279 279 281 283 283 284 286 288 289 288 289 291 292 292 294 296 296 296 296 296 296 296 296 296 294 293 293 293 293 292
255 256 257 258 262 264 266 268 272 274 274 276 278 277 278 280 281 281 282 284 285 286 287 287 289 290 291 292 294 294 294 294 294 294 294 294 293 292 292 291 291 291 290
256 257 257 257 259 263 265 268 270 272 273 274 276 276 278 278 279 279 281 282 283 284 286 286 287 288 288 290 290 292 292 292 292 292 292 293 291 290 290 290 290 291 290
257 258 258 258 260 262 264 267 269 271 272 274 275 275 275 277 279 280 280 282 282 282 284 285 286 286 286 287 287 289 290 291 290 290 291 292 291 289 288 289 289 290 289
259 258 258 260 262 263 263 266 269 270 271 273 275 276 275 274 278 280 280 280 280 281 282 283 284 284 285 285 285 287 289 290 289 289 289 289 289 288 289 288 286 288 288
262 260 260 262 263 263 265 266 268 269 271 271 273 275 276 276 276 278 278 278 278 280 281 282 282 282 283 284 285 285 286 287 287 287 287 288 288 287 289 289 288 288 288
263 263 263 264 266 266 267 267 267 269 271 272 274 275 275 275 275 276 277 276 276 278 279 281 281 280 282 283 285 285 285 284 283 284 285 286 286 287 288 289 289 289 288
265 265 265 265 266 267 267 268 268 270 270 271 273 275 276 277 276 276 275 274 275 277 278 280 281 281 282 283 285 286 284 283 283 283 282 283 284 285 286 287 287 288 288
265 266 266 266 267 268 268 270 270 270 271 271 272 273 275 276 276 275 275 274 275 276 277 280 281 282 282 283 285 285 285 284 282 282 282 282 282 283 285 285 285 286 285
267 267 268 267 267 267 268 269 270 271 271 271 272 273 273 275 276 277 277 276 277 276 277 278 280 280 281 282 284 284 284 283 283 283 283 283 282 282 282 283 284 285 284
266 267 267 266 266 267 268 269 270 271 271 271 271 273 273 275 276 277 278 277 276 277 278 277 277 279 280 281 282 282 282 282 282 284 284 284 284 284 283 282 283 283 283
266 266 267 266 267 268 269 269 270 271 271 271 272 272 272 274 276 277 278 277 278 279 278 276 276 277 278 278 279 280 280 280 281 283 285 285 285 285 284 283 283 284 284
266 266 267 267 269 270 270 271 271 271 272 273 272 271 273 274 275 277 278 278 278 278 277 277 277 276 276 277 277 278 278 279 280 282 283 283 284 284 284 284 284 284 284
266 266 267 267 269 269 269 269 271 272 272 273 273 272 273 275 275 277 278 278 278 277 276 276 276 276 275 275 275 276 278 280 280 280 281 282 282 283 283 283 283 284 284
266 266 266 268 268 268 268 269 270 271 272 273 273 274 275 275 275 276 277 277 276 276 275 275 274 274 274 274 275 275 277 279 279 279 279 279 280 281 282 282 283 283 283
265 265 265 266 267 267 268 269 270 271 272 273 273 274 275 275 276 277 276 276 275 274 274 273 272 272 274 275 275 275 276 277 278 278 277 278 279 280 281 281 281 282 282
263 264 264 266 267 267 268 269 270 271 272 273 273 273 274 275 276 277 276 275 275 273 273 272 272 273 274 274 274 275 275 276 277 277 276 277 278 279 279 280 280 281 282
264 264 265 266 267 268 269 270 270 271 272 274 274 275 276 276 276 275 275 275 274 274 273 274 273 272 272 273 273 274 275 275 275 275 275 275 276 277 277 277 278 279 280
267 267 268 268 268 269 269 270 271 272 273 273 275 277 277 277 277 276 274 274 274 273 274 274 274 274 272 272 272 273 274 275 275 275 274 274 275 276 276 277 277 277 277
267 267 268 267 268 269 270 271 271 272 273 274 275 277 278 278 277 276 275 274 274 274 274 274 273 273 272 271 271 272 273 274 274 275 274 273 275 276 276 277 277 276 277
268 268 268 270 271 272 272 272 273 273 273 275 276 277 278 278 278 277 276 275 274 273 273 273 272 272 272 272 271 271 272 273 274 274 273 274 275 276 277 277 276 276 276
269 270 270 271 271 272 272 272 273 273 275 276 278 278 278 278 277 277 276 275 274 273 273 272 272 273 273 273 273 273 272 273 275 276 274 274 275 276 276 276 276 276 275
274 272 271 270 271 271 271 272 273 274 275 276 277 279 279 278 278 277 276 274 273 273 273 272 272 273 273 273 273 274 273 274 275 276 276 275 275 275 275 275 275 274 274
276 274 273 272 272 271 272 272 274 275 276 277 279 281 281 279 278 278 277 275 273 273 274 274 273 273 273 273 273 273 274 275 276 277 277 277 276 275 275 275 275 273 272
Height
5807 5808 5809 5810 5811 5811 5812 5812 5813 5813 5813 5812 5812 5812 5811 5811 5810 5809 5809 5807 5806 5805 5804 5802 5801 5800 5798 5797 5795 5794 5792 5791 5790 5789 5787 5786 5784 5783 5783 5782 5782 5781 5781
5800 5801 5803 5804 5805 5806 5806 5807 5807 5807 5807 5807 5807 5806 5806 5805 5805 5804 5803 5802 5801 5800 5799 5798 5796 5795 5793 5792 5791 5789 5788 5786 5785 5784 5782 5781 5780 5778 5778 5777 5777 5776 5775
5794 5795 5796 5798 5799 5800 5800 5801 5801 5801 5801 5801 5801 5800 5800 5800 5799 5799 5798 5797 5796 5795 5794 5792 5791 5790 5788 5787 5786 5784 5782 5781 5780 5778 5777 5776 5775 5773 5773 5772 5772 5771 5770
5787 5788 5789 5791 5792 5793 5794 5794 5795 5795 5795 5795 5795 5794 5794 5794 5793 5792 5792 5791 5790 5789 5788 5786 5785 5784 5783 5781 5780 5778 5777 5776 5774 5773 5772 5771 5769 5768 5767 5767 5766 5766 5765
5780 5781 5782 5783 5785 5786 5787 5787 5788 5788 5788 5788 5788 5788 5788 5787 5787 5786 5786 5785 5784 5783 5782 5780 5779 5778 5776 5775 5774 5773 5771 5770 5768 5767 5766 5765 5764 5763 5762 5761 5761 5760 5759
5773 5774 5775 5776 5777 5779 5779 5780 5781 5781 5781 5781 5781 5781 5781 5780 5780 5779 5779 5778 5777 5776 5775 5774 5772 5771 5770 5769 5768 5766 5765 5764 5762 5761 5760 5759 5757 5757 5756 5755 5754 5753 5753
5765 5766 5767 5768 5769 5770 5771 5772 5773 5773 5774 5774 5774 5773 5774 5773 5773 5772 5771 5770 5770 5769 5768 5766 5765 5764 5763 5762 5761 5760 5758 5757 5756 5755 5754 5752 5751 5751 5750 5749 5747 5747 5746
5757 5758 5759 5760 5761 5762 5763 5764 5764 5765 5765 5765 5765 5765 5765 5765 5765 5764 5763 5762 5762 5761 5760 5759 5758 5756 5755 5754 5753 5752 5751 5750 5749 5748 5747 5746 5745 5744 5743 5742 5740 5740 5739
5749 5749 5750 5751 5752 5753 5754 5754 5755 5755 5756 5756 5757 5757 5757 5757 5756 5755 5754 5754 5753 5753 5752 5751 5749 5748 5748 5746 5745 5744 5743 5742 5741 5740 5739 5738 5737 5736 5736 5735 5734 5733 5732
5740 5740 5741 5742 5743 5744 5744 5745 5745 5746 5746 5747 5747 5748 5748 5748 5747 5746 5746 5745 5745 5745 5744 5742 5741 5740 5739 5738 5737 5736 5735 5734 5733 5733 5732 5731 5730 5729 5728 5727 5726 5725 5724
5730 5731 5731 5732 5733 5734 5734 5735 5735 5736 5737 5737 5738 5738 5738 5738 5738 5737 5737 5736 5736 5736 5735 5734 5733 5731 5730 5729 5728 5727 5726 5725 5725 5724 5724 5723 5722 5721 5720 5719 5718 5717 5716
5721 5721 5722 5722 5723 5724 5724 5725 5725 5726 5726 5727 5727 5728 5728 5728 5728 5727 5727 5727 5726 5726 5726 5725 5724 5723 5721 5720 5719 5718 5717 5717 5716 5716 5715 5714 5714 5713 5711 5710 5709 5708 5707
5710 5711 5711 5712 5713 5713 5714 5715 5715 5715 5716 5717 5717 5718 5718 5719 5718 5718 5717 5717 5716 5716 5715 5715 5714 5713 5712 5711 5710 5710 5709 5708 5708 5707 5707 5706 5705 5704 5703 5701 5700 5699 5698
5700 5701 5701 5702 5702 5703 5703 5704 5705 5705 5706 5706 5707 5708 5708 5708 5709 5708 5707 5707 5706 5706 5705 5705 5704 5703 5703 5702 5702 5701 5700 5700 5699 5699 5698 5697 5696 5695 5694 5693 5691 5690 5689
5689 5690 5691 5691 5692 5692 5693 5694 5694 5695 5695 5696 5697 5697 5697 5698 5698 5698 5697 5696 5696 5695 5695 5694 5694 5693 5693 5692 5692 5692 5691 5690 5690 5689 5688 5688 5687 5686 5685 5683 5682 5681 5680
5678 5679 5680 5681 5681 5682 5683 5684 5684 5684 5685 5685 5686 5686 5687 5687 5687 5687 5686 5686 5685 5685 5684 5684 5684 5683 5683 5683 5682 5682 5681 5681 5680 5679 5679 5678 5677 5676 5675 5674 5673 5672 5671
5667 5668 5669 5670 5671 5671 5672 5673 5674 5674 5674 5675 5675 5675 5676 5676 5676 5675 5675 5674 5674 5674 5673 5673 5673 5673 5673 5673 5672 5672 5671 5671 5670 5670 5669 5669 5668 5667 5666 5665 5664 5662 5661
5657 5658 5659 5660 5660 5661 5662 5662 5663 5664 5664 5664 5665 5665 5665 5665 5664 5664 5664 5663 5663 5663 5663 5663 5663 5663 5662 5662 5662 5661 5661 5660 5660 5660 5659 5659 5658 5657 5656 5655 5654 5653 5652
5646 5647 5648 5649 5650 5651 5651 5652 5652 5653 5653 5653 5654 5654 5653 5653 5653 5652 5652 5652 5652 5652 5652 5652 5652 5652 5652 5651 5651 5650 5650 5650 5649 5649 5649 5648 5648 5647 5646 5645 5644 5643 5642
5636 5637 5638 5639 5639 5640 5641 5642 5642 5642 5643 5643 5643 5643 5642 5642 5642 5641 5641 5640 5640 5640 5640 5640 5640 5640 5640 5640 5640 5640 5639 5639 5638 5638 5638 5638 5637 5636 5636 5635 5634 5633 5632
5626 5627 5628 5628 5629 5630 5630 5631 5631 5632 5632 5632 5632 5632 5631 5631 5630 5630 5629 5629 5629 5629 5629 5629 5629 5629 5629 5629 5629 5629 5628 5628 5627 5627 5627 5626 5626 5625 5625 5624 5623 5622 5622
5616 5617 5618 5619 5619 5619 5620 5620 5621 5621 5621 5622 5622 5621 5620 5620 5619 5618 5618 5617 5617 5617 5617 5617 5617 5617 5617 5617 5617 5617 5617 5616 5616 5616 5615 5615 5614 5614 5613 5612 5612 5611 5611
5607 5608 5608 5609 5609 5609 5610 5610 5610 5610 5611 5610 5610 5610 5610 5609 5608 5607 5607 5606 5606 5606 5606 5606 5606 5606 5606 5606 5606 5605 5605 5605 5605 5604 5604 5603 5602 5602 5601 5601 5600 5600 5600
5598 5598 5598 5599 5599 5599 5599 5599 5600 5600 5600 5600 5600 5599 5599 5598 5597 5596 5596 5595 5595 5595 5595 5595 5595 5595 5595 5594 5594 5594 5594 5594 5593 5593 5592 5592 5591 5591 5590 5590 5590 5589 5589
5588 5588 5588 5588 5589 5589 5589 5589 5589 5589 5589 5589 5589 5588 5587 5587 5586 5585 5585 5584 5584 5584 5583 5584 5584 5584 5583 5583 5583 5583 5583 5582 5582 5581 5581 5580 5580 5579 5579 5579 5578 5578 5578
5578 5578 5578 5579 5579 5579 5579 5579 5579 5579 5579 5579 5578 5577 5577 5576 5575 5574 5573 5573 5573 5572 5572 5572 5572 5572 5572 5572 5572 5572 5571 5571 5570 5570 5569 5569 5568 5568 5568 5568 5567 5567 5567